Torna al catalogo

STARLINK-4739

AttivoComunicazioniVLEO
NORAD 53792·PAYLOAD·🇺🇸 United States

Lanciato Sep 11, 2022 da Cape Canaveral Space Force Station

Loading…

Prossimi Passaggi (prossime 24 ore)

TLE

AggiornatoSource: CelesTrak SupGP

Epoca: Sep 14, 2026, 21:40 UTC

1 53792C 22111V   26257.90326389 -.00013961  00000+0 -44937-3 0  2573
2 53792  53.1569 132.2234 0001215  88.3928 142.0917 15.31678759    18

Traccia STARLINK-4739 in tempo reale con AllMySat

Download on the App Store